Погода в Валпое

Индия     15°31′44″N   74°08′07″E
темп.,
°C
ветер,
м/с
пор.,
м/с
влажн.,
%
обл.,
%
осадки,
мм/ч
давл.,
гПа
погр.,
м
16 мая, вс
вс1623:30+24в71685100 11.6 10001082
02:30+24вюв81886100 0.8 9971344
05:30+23вюв71589100 3.0 9961146
08:30+24ююв51694100 21.1 10001532
11:30+24ю61697100 51.7 10011349
14:30+23ююз41298100 16.7 10021255
17:30+23ююз41198100 26.6 10021073
20:30+23ююз3898100 6.8 1005685
17 мая, пн
пн1723:30+23ю2695100 9.4 1005324
02:30+23ю2695100 1.1 1004316
05:30+22ююв129596 2.0 100665
08:30+25ю268587 0.6 1008686
11:30+29ююз476524 1.3 10081328
14:30+29юз466564 0.2 10061395
17:30+27юз357352 0.4 1006967
20:30+24юз119158 0.1 100816
18 мая, вт
вт1823:30+23ююв119499 0.1 100822
02:30+23юз019540 0.0 100672
05:30+23вюв119484 0.1 100624
08:30+27юз137499 0.1 1008710
11:30+30юз3464100 0.1 10081235
14:30+29юз3473100 3.8 1006940
17:30+27зюз2482100 7.6 1007531
20:30+24зюз1194100 0.4 100933
19 мая, ср
ср1923:30+24ю0097100 0.4 100927
02:30+23в119599 0.0 100614
05:30+23ссв119497 0.0 100711
08:30+27зюз017921 0.0 1009401
11:30+30ююз226649 1.1 10081127
14:30+29юз237369 5.2 1006893
17:30+26зюз248637 10.1 1006575
20:30+24з119418 0.4 100852
20 мая, чт
чт2023:30+24зюз119622 0.4 100858
02:30+23зюз129779 0.1 1006100
05:30+23юв019723 0.2 100837
08:30+26юз128220 0.0 1009506
11:30+30зюз226497 0.1 10091245
14:30+28зюз337486 0.9 1007854
17:30+27зюз348239 1.9 1007591
20:30+24зюз259380 0.4 1008281